Time,TemperatureF,DewpointF,PressureIn,WindDirection,WindDirectionDegrees,WindSpeedMPH,WindSpeedGustMPH,Humidity,HourlyPrecipIn,Conditions,Clouds,dailyrainin,SolarRadiationWatts/m^2,SoftwareType,DateUTC
2013-02-23 00:00:00,38.0,38.0,30.09,West,264,0.0,1.0,100,0.00,,,0.00,0,TxWx,2013-02-23 05:00:00,
2013-02-23 00:05:00,37.4,37.4,30.09,NNW,340,1.1,2.0,100,0.00,,,0.00,0,TxWx,2013-02-23 05:05:00,
2013-02-23 00:10:00,41.5,41.5,30.09,NW,325,2.4,2.4,100,0.00,,,0.00,0,TxWx,2013-02-23 05:10:00,
2013-02-23 00:15:00,42.3,42.3,30.09,North,359,1.1,1.1,100,0.00,,,0.00,0,TxWx,2013-02-23 05:15:00,
2013-02-23 00:20:00,42.9,42.9,30.08,WNW,300,3.5,3.5,100,0.00,,,0.00,0,TxWx,2013-02-23 05:20:00,
2013-02-23 00:25:00,43.8,43.8,30.08,SSE,151,6.1,6.1,100,0.00,,,0.00,0,TxWx,2013-02-23 05:25:00,
2013-02-23 00:30:00,42.3,42.3,30.09,NNW,347,1.1,1.1,100,0.00,,,0.00,0,TxWx,2013-02-23 05:30:00,
2013-02-23 00:35:00,40.4,40.4,30.09,North,6,3.5,5.0,100,0.00,,,0.00,0,TxWx,2013-02-23 05:35:00,
2013-02-23 00:40:00,39.9,39.9,30.09,WSW,256,2.4,3.0,100,0.00,,,0.00,0,TxWx,2013-02-23 05:40:00,
2013-02-23 00:45:00,41.0,41.0,30.10,West,275,1.1,1.1,100,0.00,,,0.00,0,TxWx,2013-02-23 05:45:00,
2013-02-23 00:50:00,42.9,42.9,30.10,NW,304,2.4,2.4,100,0.00,,,0.00,0,TxWx,2013-02-23 05:50:00,
2013-02-23 00:55:00,44.2,44.2,30.09,West,268,1.1,1.1,100,0.00,,,0.00,0,TxWx,2013-02-23 05:55:00,
2013-02-23 01:00:00,45.3,45.3,30.09,NW,321,2.4,2.4,100,0.00,,,0.00,0,TxWx,2013-02-23 06:00:00,
2013-02-23 01:05:00,45.8,45.8,30.09,SW,220,0.0,0.0,100,0.00,,,0.00,0,TxWx,2013-02-23 06:05:00,
2013-02-23 01:10:00,46.1,46.1,30.08,North,358,0.0,0.0,100,0.00,,,0.00,0,TxWx,2013-02-23 06:10:00,
2013-02-23 01:15:00,46.0,46.0,30.08,North,8,1.1,2.0,100,0.00,,,0.00,0,TxWx,2013-02-23 06:15:00,
2013-02-23 01:20:00,45.5,45.5,30.08,NNE,27,1.1,2.0,100,0.00,,,0.00,0,TxWx,2013-02-23 06:20:00,
2013-02-23 01:25:00,45.7,45.7,30.08,SW,219,0.0,1.0,100,0.00,,,0.00,0,TxWx,2013-02-23 06:25:00,
2013-02-23 01:30:00,46.1,46.1,30.07,North,359,1.1,1.1,100,0.00,,,0.00,0,TxWx,2013-02-23 06:30:00,
2013-02-23 01:36:00,46.3,46.3,30.08,North,359,1.1,1.1,100,0.00,,,0.00,0,TxWx,2013-02-23 06:36:00,
2013-02-23 01:41:00,46.8,46.8,30.09,North,359,1.1,2.0,100,0.00,,,0.00,0,TxWx,2013-02-23 06:41:00,
2013-02-23 01:46:00,46.8,46.8,30.09,SW,231,2.4,2.4,100,0.00,,,0.00,0,TxWx,2013-02-23 06:46:00,
2013-02-23 01:50:00,46.8,46.8,30.08,South,176,1.1,1.1,100,0.00,,,0.00,0,TxWx,2013-02-23 06:50:00,
2013-02-23 01:56:00,46.6,46.6,30.08,SW,221,0.0,0.0,100,0.00,,,0.00,0,TxWx,2013-02-23 06:56:00,
2013-02-23 02:00:00,46.5,46.5,30.08,North,350,1.1,2.0,100,0.00,,,0.00,0,TxWx,2013-02-23 07:00:00,
2013-02-23 02:06:00,46.7,46.7,30.08,North,359,1.1,1.1,100,0.00,,,0.00,0,TxWx,2013-02-23 07:06:00,
2013-02-23 02:11:00,46.4,46.4,30.08,North,359,0.0,1.0,100,0.00,,,0.00,0,TxWx,2013-02-23 07:11:00,
2013-02-23 02:16:00,45.1,45.1,30.08,West,272,1.1,1.1,100,0.00,,,0.00,0,TxWx,2013-02-23 07:16:00,
2013-02-23 02:20:00,45.0,45.0,30.08,WSW,239,1.1,2.0,100,0.00,,,0.00,0,TxWx,2013-02-23 07:20:00,
2013-02-23 02:25:00,45.1,45.1,30.08,NNW,333,1.1,1.1,100,0.00,,,0.00,0,TxWx,2013-02-23 07:25:00,
2013-02-23 02:30:00,45.3,45.3,30.08,WSW,257,1.1,1.1,100,0.01,,,0.01,0,TxWx,2013-02-23 07:30:00,
2013-02-23 02:35:00,45.4,45.4,30.09,WSW,256,0.0,1.0,100,0.01,,,0.01,0,TxWx,2013-02-23 07:35:00,
2013-02-23 02:40:00,44.2,44.2,30.09,NNE,22,0.0,1.0,100,0.02,,,0.02,0,TxWx,2013-02-23 07:40:00,
2013-02-23 02:45:00,44.7,44.7,30.09,North,358,1.1,1.1,100,0.02,,,0.02,0,TxWx,2013-02-23 07:45:00,
2013-02-23 02:50:00,45.2,45.2,30.09,NW,313,2.4,2.4,100,0.04,,,0.04,0,TxWx,2013-02-23 07:50:00,
2013-02-23 02:55:00,45.0,45.0,30.09,North,359,0.0,0.0,100,0.05,,,0.05,0,TxWx,2013-02-23 07:55:00,
2013-02-23 03:00:00,44.9,44.9,30.08,NW,320,0.0,1.0,100,0.05,,,0.05,0,TxWx,2013-02-23 08:00:00,
2013-02-23 03:05:00,45.0,45.0,30.07,WSW,242,1.1,1.1,100,0.06,,,0.06,0,TxWx,2013-02-23 08:05:00,
2013-02-23 03:10:00,43.2,43.2,30.07,NE,39,2.4,2.4,100,0.06,,,0.06,0,TxWx,2013-02-23 08:10:00,
2013-02-23 03:15:00,40.1,40.1,30.06,North,359,1.1,1.1,100,0.07,,,0.07,0,TxWx,2013-02-23 08:15:00,
2013-02-23 03:20:00,40.3,40.3,30.06,North,359,0.0,0.0,100,0.07,,,0.07,0,TxWx,2013-02-23 08:20:00,
2013-02-23 03:25:00,43.8,43.8,30.06,South,178,1.1,1.1,100,0.08,,,0.08,0,TxWx,2013-02-23 08:25:00,
2013-02-23 03:30:00,44.6,44.6,30.05,NNW,341,1.1,1.1,100,0.07,,,0.08,0,TxWx,2013-02-23 08:30:00,
2013-02-23 03:35:00,44.8,44.8,30.05,NNW,336,1.1,1.1,100,0.07,,,0.08,0,TxWx,2013-02-23 08:35:00,
2013-02-23 03:40:00,44.9,44.9,30.06,NNW,343,0.0,0.0,100,0.06,,,0.08,0,TxWx,2013-02-23 08:40:00,
2013-02-23 03:45:00,44.9,44.9,30.06,NNW,341,0.0,0.0,100,0.06,,,0.08,0,TxWx,2013-02-23 08:45:00,
2013-02-23 03:50:00,44.9,44.9,30.06,NNW,340,0.0,0.0,100,0.04,,,0.08,0,TxWx,2013-02-23 08:50:00,
2013-02-23 03:55:00,44.9,44.9,30.06,SW,217,1.1,1.1,100,0.03,,,0.08,0,TxWx,2013-02-23 08:55:00,
2013-02-23 04:00:00,44.8,44.8,30.06,SSW,213,0.0,0.0,100,0.04,,,0.09,0,TxWx,2013-02-23 09:00:00,
2013-02-23 04:05:00,41.4,41.4,30.06,ESE,108,1.1,3.0,100,0.04,,,0.10,0,TxWx,2013-02-23 09:05:00,
2013-02-23 04:10:00,40.5,40.5,30.05,North,0,2.4,2.4,100,0.05,,,0.11,0,TxWx,2013-02-23 09:10:00,
2013-02-23 04:15:00,40.5,40.5,30.05,North,0,1.1,1.1,100,0.05,,,0.12,0,TxWx,2013-02-23 09:15:00,
2013-02-23 04:20:00,42.8,42.8,30.04,SSE,152,0.0,0.0,100,0.05,,,0.12,0,TxWx,2013-02-23 09:20:00,
2013-02-23 04:25:00,43.9,43.9,30.04,SW,218,0.0,0.0,100,0.04,,,0.12,0,TxWx,2013-02-23 09:25:00,
2013-02-23 04:30:00,44.4,44.4,30.03,SE,128,0.0,0.0,100,0.05,,,0.13,0,TxWx,2013-02-23 09:30:00,
2013-02-23 04:35:00,42.9,42.9,30.02,SE,140,3.5,3.5,100,0.05,,,0.13,0,TxWx,2013-02-23 09:35:00,
2013-02-23 04:40:00,40.5,40.5,30.02,East,92,2.4,2.4,100,0.05,,,0.13,0,TxWx,2013-02-23 09:40:00,
2013-02-23 04:45:00,40.5,40.5,30.02,SE,133,2.4,2.4,100,0.05,,,0.13,0,TxWx,2013-02-23 09:45:00,
2013-02-23 04:50:00,41.5,41.5,30.02,ESE,117,2.4,2.4,100,0.05,,,0.13,0,TxWx,2013-02-23 09:50:00,
2013-02-23 04:55:00,41.8,41.8,30.02,ESE,106,1.1,1.1,100,0.05,,,0.13,0,TxWx,2013-02-23 09:55:00,
2013-02-23 05:03:00,42.2,42.2,30.03,ESE,115,0.0,1.0,100,0.05,,,0.13,0,TxWx,2013-02-23 10:03:00,
2013-02-23 05:08:00,43.0,43.0,30.03,NW,323,1.1,1.1,100,0.03,,,0.13,0,TxWx,2013-02-23 10:08:00,
2013-02-23 05:13:00,42.5,42.5,30.04,North,359,0.0,1.0,100,0.02,,,0.13,0,TxWx,2013-02-23 10:13:00,
2013-02-23 05:18:00,42.6,42.6,30.03,NNE,16,0.0,0.0,100,0.02,,,0.14,0,TxWx,2013-02-23 10:18:00,
2013-02-23 05:23:00,43.1,43.1,30.02,SE,136,0.0,0.0,100,0.02,,,0.14,0,TxWx,2013-02-23 10:23:00,
2013-02-23 05:28:00,41.5,41.5,30.02,ENE,76,2.4,2.4,100,0.02,,,0.14,0,TxWx,2013-02-23 10:28:00,
2013-02-23 05:33:00,40.5,40.5,30.02,SE,129,2.4,2.4,100,0.01,,,0.14,0,TxWx,2013-02-23 10:33:00,
2013-02-23 05:38:00,41.4,41.4,30.02,SE,125,1.1,1.1,100,0.01,,,0.14,0,TxWx,2013-02-23 10:38:00,
2013-02-23 05:43:00,42.4,42.4,30.02,SE,129,1.1,1.1,100,0.01,,,0.14,0,TxWx,2013-02-23 10:43:00,
2013-02-23 05:48:00,43.1,43.1,30.02,ESE,113,1.1,1.1,100,0.01,,,0.14,0,TxWx,2013-02-23 10:48:00,
2013-02-23 05:53:00,43.2,43.2,30.02,ESE,116,0.0,0.0,100,0.01,,,0.14,0,TxWx,2013-02-23 10:53:00,
2013-02-23 05:58:00,41.7,41.7,30.02,North,359,1.1,1.1,100,0.01,,,0.14,0,TxWx,2013-02-23 10:58:00,
2013-02-23 06:03:00,41.4,41.4,30.02,West,278,0.0,0.0,100,0.02,,,0.15,0,TxWx,2013-02-23 11:03:00,
2013-02-23 06:08:00,41.2,41.2,30.02,WNW,294,0.0,0.0,100,0.02,,,0.15,0,TxWx,2013-02-23 11:08:00,
2013-02-23 06:13:00,41.3,41.3,30.02,West,271,0.0,0.0,100,0.02,,,0.15,0,TxWx,2013-02-23 11:13:00,
2013-02-23 06:18:00,41.5,41.5,30.02,SSW,209,0.0,0.0,100,0.01,,,0.15,0,TxWx,2013-02-23 11:18:00,
2013-02-23 06:23:00,42.2,42.2,30.01,SSE,166,0.0,1.0,100,0.01,,,0.15,0,TxWx,2013-02-23 11:23:00,
2013-02-23 06:28:00,43.2,43.2,30.01,SE,145,2.4,2.4,100,0.01,,,0.15,0,TxWx,2013-02-23 11:28:00,
2013-02-23 06:33:00,42.9,42.9,30.01,ESE,112,2.4,2.4,100,0.01,,,0.15,0,TxWx,2013-02-23 11:33:00,
2013-02-23 06:38:00,41.7,41.7,30.02,NNE,16,1.1,2.0,100,0.01,,,0.15,0,TxWx,2013-02-23 11:38:00,
2013-02-23 06:43:00,41.3,41.3,30.02,North,359,1.1,1.1,100,0.01,,,0.15,0,TxWx,2013-02-23 11:43:00,
2013-02-23 06:48:00,40.9,40.9,30.02,NNW,341,0.0,0.0,100,0.01,,,0.15,0,TxWx,2013-02-23 11:48:00,
2013-02-23 06:53:00,40.7,40.7,30.02,SW,224,0.0,0.0,100,0.01,,,0.15,0,TxWx,2013-02-23 11:53:00,
2013-02-23 06:58:00,40.9,40.9,30.01,West,266,2.4,2.4,100,0.01,,,0.15,0,TxWx,2013-02-23 11:58:00,
2013-02-23 07:03:00,42.0,42.0,30.01,West,266,0.0,0.0,100,0.01,,,0.15,0,TxWx,2013-02-23 12:03:00,
2013-02-23 07:08:00,43.0,43.0,30.01,West,265,0.0,0.0,100,0.00,,,0.15,1,TxWx,2013-02-23 12:08:00,
2013-02-23 07:13:00,43.4,43.4,30.01,ENE,78,0.0,0.0,100,0.00,,,0.15,1,TxWx,2013-02-23 12:13:00,
2013-02-23 07:18:00,43.3,43.3,30.01,NNE,27,0.0,0.0,100,0.00,,,0.15,1,TxWx,2013-02-23 12:18:00,
2013-02-23 07:23:00,43.3,43.3,30.01,North,0,0.0,1.0,100,0.00,,,0.15,3,TxWx,2013-02-23 12:23:00,
2013-02-23 07:28:00,42.3,42.3,30.01,North,359,0.0,0.0,100,0.00,,,0.15,5,TxWx,2013-02-23 12:28:00,
2013-02-23 07:33:00,41.6,41.6,30.01,North,359,1.1,1.1,100,0.00,,,0.15,4,TxWx,2013-02-23 12:33:00,
2013-02-23 07:38:00,41.3,41.3,30.01,North,359,1.1,1.1,100,0.00,,,0.15,6,TxWx,2013-02-23 12:38:00,
2013-02-23 07:43:00,41.1,41.1,30.01,North,359,0.0,0.0,100,0.00,,,0.15,6,TxWx,2013-02-23 12:43:00,
2013-02-23 07:48:00,40.7,40.7,30.01,North,359,0.0,0.0,100,0.00,,,0.15,9,TxWx,2013-02-23 12:48:00,
2013-02-23 07:53:00,40.7,40.7,30.01,North,359,0.0,0.0,100,0.01,,,0.16,13,TxWx,2013-02-23 12:53:00,
2013-02-23 07:58:00,40.6,40.6,30.01,North,359,0.0,0.0,100,0.01,,,0.16,9,TxWx,2013-02-23 12:58:00,
2013-02-23 08:03:00,40.6,40.6,30.01,North,4,0.0,0.0,100,0.01,,,0.16,12,TxWx,2013-02-23 13:03:00,
2013-02-23 08:08:00,40.8,40.8,30.01,North,3,0.0,0.0,100,0.01,,,0.16,13,TxWx,2013-02-23 13:08:00,
2013-02-23 08:13:00,40.8,40.8,30.02,North,359,0.0,0.0,100,0.01,,,0.16,16,TxWx,2013-02-23 13:13:00,
2013-02-23 08:18:00,40.7,40.7,30.02,North,359,0.0,0.0,100,0.01,,,0.16,21,TxWx,2013-02-23 13:18:00,
2013-02-23 08:23:00,40.8,40.8,30.02,North,359,1.1,0.0,100,0.01,,,0.16,20,TxWx,2013-02-23 13:23:00,
2013-02-23 08:28:00,42.2,42.2,30.02,North,359,1.1,2.0,100,0.01,,,0.16,47,TxWx,2013-02-23 13:28:00,
2013-02-23 08:33:00,42.2,42.2,30.02,North,359,2.4,2.4,100,0.01,,,0.16,56,TxWx,2013-02-23 13:33:00,
2013-02-23 08:38:00,43.4,43.4,30.02,North,359,1.1,1.1,100,0.01,,,0.16,58,TxWx,2013-02-23 13:38:00,
2013-02-23 08:43:00,43.3,43.3,30.02,North,0,1.1,1.1,100,0.01,,,0.16,52,TxWx,2013-02-23 13:43:00,
2013-02-23 08:48:00,43.0,43.0,30.02,ENE,65,1.1,1.1,100,0.01,,,0.16,54,TxWx,2013-02-23 13:48:00,
2013-02-23 08:53:00,42.7,42.7,30.02,North,359,0.0,0.0,100,0.00,,,0.16,71,TxWx,2013-02-23 13:53:00,
2013-02-23 08:58:00,42.7,42.7,30.02,North,359,0.0,0.0,100,0.00,,,0.16,97,TxWx,2013-02-23 13:58:00,
2013-02-23 09:03:00,42.9,42.9,30.02,North,359,0.0,0.0,100,0.00,,,0.16,95,TxWx,2013-02-23 14:03:00,
2013-02-23 09:08:00,43.4,43.4,30.03,North,359,1.1,2.0,100,0.00,,,0.16,104,TxWx,2013-02-23 14:08:00,
2013-02-23 09:15:00,43.3,43.3,30.03,North,359,0.0,0.0,100,0.00,,,0.16,94,TxWx,2013-02-23 14:15:00,
2013-02-23 09:20:00,43.3,43.3,30.02,NNW,328,2.4,2.4,100,0.00,,,0.16,111,TxWx,2013-02-23 14:20:00,
2013-02-23 09:27:00,44.3,44.3,30.01,NNW,339,1.1,1.1,100,0.00,,,0.16,123,TxWx,2013-02-23 14:27:00,
2013-02-23 09:32:00,44.9,44.9,30.02,North,359,0.0,0.0,100,0.00,,,0.16,120,TxWx,2013-02-23 14:32:00,
2013-02-23 09:37:00,44.1,44.1,30.01,ENE,59,2.4,2.4,100,0.00,,,0.16,87,TxWx,2013-02-23 14:37:00,
2013-02-23 09:42:00,44.0,44.0,30.01,North,0,0.0,0.0,100,0.00,,,0.16,131,TxWx,2013-02-23 14:42:00,
2013-02-23 09:48:00,43.9,43.9,30.01,North,359,1.1,1.1,100,0.00,,,0.16,121,TxWx,2013-02-23 14:48:00,
2013-02-23 09:53:00,44.1,44.1,30.01,North,359,0.0,0.0,100,0.00,,,0.16,95,TxWx,2013-02-23 14:53:00,
2013-02-23 09:58:00,44.0,44.0,30.01,North,359,1.1,2.0,100,0.00,,,0.16,98,TxWx,2013-02-23 14:58:00,
2013-02-23 10:03:00,44.3,44.3,30.01,North,359,0.0,0.0,100,0.00,,,0.16,128,TxWx,2013-02-23 15:03:00,
2013-02-23 10:08:00,44.5,44.5,30.01,North,359,0.0,0.0,100,0.00,,,0.16,124,TxWx,2013-02-23 15:08:00,
2013-02-23 10:13:00,44.8,44.8,30.02,North,359,0.0,0.0,100,0.00,,,0.16,83,TxWx,2013-02-23 15:13:00,
2013-02-23 10:18:00,44.8,44.8,30.02,North,354,1.1,0.0,100,0.00,,,0.16,87,TxWx,2013-02-23 15:18:00,
2013-02-23 10:23:00,44.9,44.9,30.02,North,351,1.1,2.0,100,0.00,,,0.16,63,TxWx,2013-02-23 15:23:00,
2013-02-23 10:28:00,45.0,45.0,30.02,SSE,159,0.0,0.0,100,0.00,,,0.16,107,TxWx,2013-02-23 15:28:00,
2013-02-23 10:33:00,45.2,45.2,30.01,North,359,0.0,0.0,100,0.00,,,0.16,110,TxWx,2013-02-23 15:33:00,
2013-02-23 10:38:00,45.4,45.4,30.01,North,359,0.0,0.0,100,0.00,,,0.16,101,TxWx,2013-02-23 15:38:00,
2013-02-23 10:43:00,45.8,45.8,30.01,North,359,0.0,0.0,100,0.01,,,0.17,136,TxWx,2013-02-23 15:43:00,
2013-02-23 10:48:00,45.9,45.9,30.01,North,359,0.0,0.0,100,0.01,,,0.17,171,TxWx,2013-02-23 15:48:00,
2013-02-23 10:53:00,46.0,46.0,30.01,North,359,0.0,0.0,100,0.01,,,0.17,147,TxWx,2013-02-23 15:53:00,
2013-02-23 10:58:00,46.1,46.1,30.01,North,359,1.1,1.1,100,0.01,,,0.17,182,TxWx,2013-02-23 15:58:00,
2013-02-23 11:03:00,46.3,46.3,30.01,North,359,2.4,3.0,100,0.01,,,0.17,205,TxWx,2013-02-23 16:03:00,
2013-02-23 11:08:00,46.8,46.8,30.01,North,359,2.4,2.4,100,0.01,,,0.17,230,TxWx,2013-02-23 16:08:00,
2013-02-23 11:19:00,47.0,47.0,30.01,North,359,1.1,2.0,100,0.01,,,0.17,251,TxWx,2013-02-23 16:19:00,
2013-02-23 11:24:00,47.3,47.3,30.01,North,359,2.4,2.4,100,0.01,,,0.17,239,TxWx,2013-02-23 16:24:00,
2013-02-23 11:29:00,47.4,47.4,30.01,North,359,2.4,2.4,100,0.01,,,0.17,255,TxWx,2013-02-23 16:29:00,
2013-02-23 11:34:00,47.7,47.7,30.01,SE,144,2.4,2.4,100,0.01,,,0.17,263,TxWx,2013-02-23 16:34:00,
2013-02-23 11:39:00,47.9,47.9,30.01,North,359,0.0,1.0,100,0.01,,,0.17,250,TxWx,2013-02-23 16:39:00,
2013-02-23 11:46:00,48.1,48.1,30.01,North,359,1.1,2.0,100,0.01,,,0.17,270,TxWx,2013-02-23 16:46:00,
2013-02-23 11:51:00,48.1,48.1,30.01,North,355,1.1,1.1,100,0.01,,,0.17,280,TxWx,2013-02-23 16:51:00,
2013-02-23 11:56:00,48.2,48.2,30.01,North,359,0.0,0.0,100,0.00,,,0.17,272,TxWx,2013-02-23 16:56:00,
2013-02-23 12:01:00,48.2,48.2,30.01,North,357,1.1,2.0,100,0.00,,,0.17,250,TxWx,2013-02-23 17:01:00,
2013-02-23 12:06:00,48.4,48.4,30.00,North,359,1.1,1.1,100,0.00,,,0.17,239,TxWx,2013-02-23 17:06:00,
2013-02-23 12:11:00,48.5,48.5,30.00,North,359,1.1,2.0,100,0.00,,,0.17,313,TxWx,2013-02-23 17:11:00,
2013-02-23 12:16:00,49.1,49.1,30.00,North,359,0.0,0.0,100,0.00,,,0.17,400,TxWx,2013-02-23 17:16:00,
2013-02-23 12:21:00,49.6,49.6,29.99,NE,34,1.1,1.1,100,0.00,,,0.17,381,TxWx,2013-02-23 17:21:00,
2013-02-23 12:26:00,50.0,50.0,29.98,NNW,342,1.1,2.0,100,0.00,,,0.17,290,TxWx,2013-02-23 17:26:00,
2013-02-23 12:31:00,49.2,49.2,29.98,North,359,3.5,3.5,100,0.00,,,0.17,301,TxWx,2013-02-23 17:31:00,
2013-02-23 12:36:00,48.8,48.8,29.98,North,359,2.4,2.4,100,0.00,,,0.17,226,TxWx,2013-02-23 17:36:00,
2013-02-23 12:41:00,48.8,48.8,29.98,North,359,1.1,1.1,100,0.00,,,0.17,180,TxWx,2013-02-23 17:41:00,
2013-02-23 12:46:00,48.6,48.6,29.98,NE,34,0.0,1.0,100,0.00,,,0.17,183,TxWx,2013-02-23 17:46:00,
2013-02-23 12:51:00,48.5,48.5,29.98,ESE,117,1.1,1.1,100,0.00,,,0.17,206,TxWx,2013-02-23 17:51:00,
2013-02-23 12:56:00,49.2,49.2,29.98,ESE,115,0.0,0.0,100,0.00,,,0.17,219,TxWx,2013-02-23 17:56:00,
2013-02-23 13:01:00,49.6,49.6,29.98,North,359,0.0,0.0,100,0.00,,,0.17,282,TxWx,2013-02-23 18:01:00,
2013-02-23 13:06:00,49.9,49.9,29.98,North,359,0.0,0.0,100,0.00,,,0.17,222,TxWx,2013-02-23 18:06:00,
2013-02-23 13:11:00,50.4,50.4,29.97,North,359,1.1,1.1,100,0.00,,,0.17,255,TxWx,2013-02-23 18:11:00,
2013-02-23 13:16:00,50.3,50.3,29.97,North,359,2.4,2.4,100,0.00,,,0.17,207,TxWx,2013-02-23 18:16:00,
2013-02-23 13:21:00,50.3,50.3,29.97,North,359,1.1,2.0,100,0.00,,,0.17,192,TxWx,2013-02-23 18:21:00,
2013-02-23 13:26:00,49.7,49.7,29.97,North,359,1.1,2.0,100,0.00,,,0.17,187,TxWx,2013-02-23 18:26:00,
2013-02-23 13:31:00,49.9,49.9,29.97,North,359,1.1,1.1,100,0.00,,,0.17,159,TxWx,2013-02-23 18:31:00,
2013-02-23 13:36:00,49.8,49.8,29.97,North,359,2.4,2.4,100,0.00,,,0.17,123,TxWx,2013-02-23 18:36:00,
2013-02-23 13:41:00,49.6,49.6,29.98,North,359,1.1,1.1,100,0.00,,,0.17,92,TxWx,2013-02-23 18:41:00,
2013-02-23 13:46:00,49.4,49.4,29.97,North,359,0.0,0.0,100,0.00,,,0.17,85,TxWx,2013-02-23 18:46:00,
2013-02-23 13:51:00,49.4,49.4,29.97,North,359,1.1,1.1,100,0.00,,,0.17,76,TxWx,2013-02-23 18:51:00,
2013-02-23 13:56:00,49.4,49.4,29.97,North,359,1.1,2.0,100,0.00,,,0.17,95,TxWx,2013-02-23 18:56:00,
2013-02-23 14:01:00,49.4,49.4,29.97,NNE,28,1.1,1.1,100,0.00,,,0.17,77,TxWx,2013-02-23 19:01:00,
2013-02-23 14:06:00,49.5,49.5,29.97,ENE,67,1.1,2.0,100,0.00,,,0.17,106,TxWx,2013-02-23 19:06:00,
2013-02-23 14:11:00,49.6,49.6,29.97,North,0,1.1,2.0,100,0.00,,,0.17,134,TxWx,2013-02-23 19:11:00,
2013-02-23 14:16:00,49.5,49.5,29.97,North,0,2.4,2.4,100,0.00,,,0.17,89,TxWx,2013-02-23 19:16:00,
2013-02-23 14:21:00,49.7,49.7,29.96,North,359,1.1,1.1,100,0.00,,,0.17,109,TxWx,2013-02-23 19:21:00,
2013-02-23 14:26:00,49.7,49.7,29.96,North,0,1.1,2.0,100,0.00,,,0.17,133,TxWx,2013-02-23 19:26:00,
2013-02-23 14:31:00,49.8,49.8,29.96,North,359,1.1,2.0,100,0.00,,,0.17,103,TxWx,2013-02-23 19:31:00,
2013-02-23 14:36:00,49.7,49.7,29.96,North,0,1.1,2.0,100,0.00,,,0.17,115,TxWx,2013-02-23 19:36:00,
2013-02-23 14:41:00,50.0,50.0,29.97,NE,51,1.1,1.1,100,0.00,,,0.17,99,TxWx,2013-02-23 19:41:00,
2013-02-23 14:46:00,50.1,50.1,29.97,NE,41,1.1,1.1,100,0.00,,,0.17,84,TxWx,2013-02-23 19:46:00,
2013-02-23 14:51:00,50.2,50.2,29.97,ENE,74,1.1,1.1,100,0.00,,,0.17,80,TxWx,2013-02-23 19:51:00,
2013-02-23 14:57:00,50.2,50.2,29.96,NE,51,1.1,2.0,100,0.00,,,0.17,62,TxWx,2013-02-23 19:57:00,
2013-02-23 15:02:00,50.1,50.1,29.96,North,6,1.1,1.1,100,0.00,,,0.17,71,TxWx,2013-02-23 20:02:00,
2013-02-23 15:07:00,50.2,50.2,29.96,NE,44,1.1,1.1,100,0.00,,,0.17,71,TxWx,2013-02-23 20:07:00,
2013-02-23 15:12:00,50.3,50.3,29.96,NE,44,1.1,0.0,100,0.00,,,0.17,64,TxWx,2013-02-23 20:12:00,
2013-02-23 15:17:00,50.2,50.2,29.95,NE,51,0.0,1.0,100,0.00,,,0.17,104,TxWx,2013-02-23 20:17:00,
2013-02-23 15:22:00,50.3,50.3,29.95,North,9,1.1,1.1,100,0.00,,,0.17,92,TxWx,2013-02-23 20:22:00,
2013-02-23 15:27:00,50.3,50.3,29.95,NE,45,1.1,2.0,100,0.00,,,0.17,82,TxWx,2013-02-23 20:27:00,
2013-02-23 15:32:00,50.4,50.4,29.95,NE,36,1.1,1.1,100,0.00,,,0.17,63,TxWx,2013-02-23 20:32:00,
2013-02-23 15:37:00,50.4,50.4,29.96,NNE,26,1.1,1.1,100,0.00,,,0.17,62,TxWx,2013-02-23 20:37:00,
2013-02-23 15:42:00,50.5,50.5,29.96,NNE,25,0.0,1.0,100,0.00,,,0.17,85,TxWx,2013-02-23 20:42:00,
2013-02-23 15:47:00,50.4,50.4,29.96,North,0,1.1,1.1,100,0.00,,,0.17,58,TxWx,2013-02-23 20:47:00,
2013-02-23 15:52:00,50.5,50.5,29.96,ENE,57,1.1,1.1,100,0.00,,,0.17,86,TxWx,2013-02-23 20:52:00,
2013-02-23 15:57:00,50.6,50.6,29.96,NE,56,0.0,0.0,100,0.00,,,0.17,48,TxWx,2013-02-23 20:57:00,
2013-02-23 16:02:00,50.7,50.7,29.96,NE,56,1.1,1.1,100,0.00,,,0.17,96,TxWx,2013-02-23 21:02:00,
2013-02-23 16:08:00,50.7,50.7,29.96,NE,55,0.0,1.0,100,0.00,,,0.17,99,TxWx,2013-02-23 21:08:00,
2013-02-23 16:13:00,50.8,50.8,29.96,NE,34,0.0,0.0,100,0.00,,,0.17,65,TxWx,2013-02-23 21:13:00,
2013-02-23 16:19:00,51.0,51.0,29.96,NE,34,0.0,0.0,100,0.00,,,0.17,61,TxWx,2013-02-23 21:19:00,
2013-02-23 16:24:00,51.0,51.0,29.96,NNE,33,0.0,0.0,100,0.00,,,0.17,57,TxWx,2013-02-23 21:24:00,
2013-02-23 16:29:00,51.2,51.2,29.95,NNE,30,0.0,0.0,100,0.00,,,0.17,73,TxWx,2013-02-23 21:29:00,
2013-02-23 16:34:00,51.1,51.1,29.95,NNE,31,0.0,0.0,100,0.00,,,0.17,69,TxWx,2013-02-23 21:34:00,
2013-02-23 16:39:00,51.2,51.2,29.95,NE,44,0.0,0.0,100,0.00,,,0.17,59,TxWx,2013-02-23 21:39:00,
2013-02-23 16:44:00,51.2,51.2,29.95,NE,43,0.0,0.0,100,0.00,,,0.17,65,TxWx,2013-02-23 21:44:00,
2013-02-23 16:49:00,51.4,51.4,29.95,NE,44,0.0,0.0,100,0.00,,,0.17,48,TxWx,2013-02-23 21:49:00,
2013-02-23 16:54:00,51.2,51.2,29.95,North,2,0.0,0.0,100,0.00,,,0.17,36,TxWx,2013-02-23 21:54:00,
2013-02-23 16:59:00,51.2,51.2,29.95,North,1,0.0,0.0,100,0.00,,,0.17,29,TxWx,2013-02-23 21:59:00,
2013-02-23 17:04:00,50.9,50.9,29.95,North,4,0.0,0.0,100,0.00,,,0.17,40,TxWx,2013-02-23 22:04:00,
2013-02-23 17:09:00,50.8,50.8,29.95,WNW,289,0.0,1.0,100,0.00,,,0.17,31,TxWx,2013-02-23 22:09:00,
2013-02-23 17:14:00,50.7,50.7,29.95,South,190,1.1,1.1,100,0.00,,,0.17,33,TxWx,2013-02-23 22:14:00,
2013-02-23 17:19:00,50.9,50.9,29.95,North,0,0.0,0.0,100,0.00,,,0.17,20,TxWx,2013-02-23 22:19:00,
2013-02-23 17:24:00,50.7,50.7,29.95,SW,230,2.4,2.4,100,0.00,,,0.17,29,TxWx,2013-02-23 22:24:00,
2013-02-23 17:29:00,50.5,50.5,29.95,SSE,154,1.1,1.1,100,0.00,,,0.17,28,TxWx,2013-02-23 22:29:00,
2013-02-23 17:34:00,50.4,50.4,29.95,SSW,208,2.4,2.4,100,0.00,,,0.17,22,TxWx,2013-02-23 22:34:00,
2013-02-23 17:39:00,50.4,50.4,29.94,SE,139,0.0,1.0,100,0.00,,,0.17,21,TxWx,2013-02-23 22:39:00,
2013-02-23 17:44:00,49.9,49.9,29.94,SSW,211,1.1,2.0,100,0.00,,,0.17,22,TxWx,2013-02-23 22:44:00,
2013-02-23 17:49:00,49.9,49.9,29.94,WSW,241,2.4,2.4,100,0.00,,,0.17,20,TxWx,2013-02-23 22:49:00,
2013-02-23 17:54:00,49.7,49.7,29.94,SSE,162,1.1,2.0,100,0.00,,,0.17,12,TxWx,2013-02-23 22:54:00,
2013-02-23 17:59:00,49.7,49.7,29.94,SW,226,2.4,2.4,100,0.00,,,0.17,8,TxWx,2013-02-23 22:59:00,
2013-02-23 18:04:00,49.7,49.7,29.94,East,96,1.1,1.1,100,0.00,,,0.17,6,TxWx,2013-02-23 23:04:00,
2013-02-23 18:09:00,49.4,49.4,29.93,SSW,203,1.1,2.0,100,0.00,,,0.17,4,TxWx,2013-02-23 23:09:00,
2013-02-23 18:14:00,49.0,49.0,29.93,SW,234,2.4,2.4,100,0.00,,,0.17,2,TxWx,2013-02-23 23:14:00,
2013-02-23 18:34:00,48.5,48.5,29.94,SSW,208,1.1,2.0,100,0.00,,,0.17,0,TxWx,2013-02-23 23:34:00,
2013-02-23 18:39:00,48.4,48.4,29.94,WSW,248,2.4,2.4,100,0.00,,,0.17,0,TxWx,2013-02-23 23:39:00,
2013-02-23 18:44:00,48.2,48.2,29.94,WSW,241,2.4,2.4,100,0.00,,,0.17,0,TxWx,2013-02-23 23:44:00,
2013-02-23 18:49:00,48.3,48.3,29.94,WSW,250,1.1,1.1,100,0.00,,,0.17,0,TxWx,2013-02-23 23:49:00,
2013-02-23 18:54:00,47.9,47.9,29.94,WSW,246,1.1,1.1,100,0.00,,,0.17,0,TxWx,2013-02-23 23:54:00,
2013-02-23 18:59:00,47.7,47.7,29.94,West,264,0.0,1.0,100,0.00,,,0.17,0,TxWx,2013-02-23 23:59:00,
2013-02-23 19:04:00,47.5,47.5,29.94,West,274,1.1,1.1,100,0.00,,,0.17,0,TxWx,2013-02-24 00:04:00,
2013-02-23 19:09:00,47.2,47.2,29.94,WNW,287,1.1,1.1,100,0.00,,,0.17,0,TxWx,2013-02-24 00:09:00,
2013-02-23 19:14:00,46.8,46.8,29.94,WNW,295,0.0,1.0,100,0.00,,,0.17,0,TxWx,2013-02-24 00:14:00,
2013-02-23 19:19:00,46.6,46.6,29.94,WSW,243,2.4,2.4,100,0.00,,,0.17,0,TxWx,2013-02-24 00:19:00,
2013-02-23 19:24:00,46.7,46.7,29.94,WNW,285,1.1,2.0,100,0.00,,,0.17,0,TxWx,2013-02-24 00:24:00,
2013-02-23 19:29:00,46.7,46.7,29.94,WSW,241,3.5,3.5,100,0.00,,,0.17,0,TxWx,2013-02-24 00:29:00,
2013-02-23 19:34:00,46.8,46.8,29.94,West,273,1.1,1.1,100,0.00,,,0.17,0,TxWx,2013-02-24 00:34:00,
2013-02-23 19:39:00,46.6,46.6,29.94,SW,219,2.4,2.4,100,0.00,,,0.17,0,TxWx,2013-02-24 00:39:00,
2013-02-23 19:44:00,46.5,46.5,29.94,West,270,0.0,1.0,100,0.00,,,0.17,0,TxWx,2013-02-24 00:44:00,
2013-02-23 19:51:00,46.0,46.0,29.95,WNW,302,1.1,1.1,100,0.00,,,0.17,0,TxWx,2013-02-24 00:51:00,
2013-02-23 19:56:00,45.7,45.7,29.95,SW,231,1.1,2.0,100,0.00,,,0.17,0,TxWx,2013-02-24 00:56:00,
2013-02-23 20:01:00,45.8,45.8,29.95,South,190,2.4,3.0,100,0.00,,,0.17,0,TxWx,2013-02-24 01:01:00,
2013-02-23 20:08:00,46.1,46.1,29.94,WNW,296,1.1,1.1,100,0.00,,,0.17,0,TxWx,2013-02-24 01:08:00,
2013-02-23 20:13:00,45.9,45.9,29.94,NW,308,1.1,1.1,100,0.00,,,0.17,0,TxWx,2013-02-24 01:13:00,
2013-02-23 20:18:00,45.5,45.5,29.94,WNW,288,1.1,2.0,100,0.00,,,0.17,0,TxWx,2013-02-24 01:18:00,
2013-02-23 20:23:00,45.3,45.3,29.94,WNW,286,1.1,1.1,100,0.00,,,0.17,0,TxWx,2013-02-24 01:23:00,
2013-02-23 20:28:00,45.0,45.0,29.94,WNW,286,0.0,1.0,100,0.00,,,0.17,0,TxWx,2013-02-24 01:28:00,
2013-02-23 20:33:00,44.7,44.7,29.94,WSW,257,1.1,1.1,100,0.00,,,0.17,0,TxWx,2013-02-24 01:33:00,
2013-02-23 20:38:00,44.6,44.6,29.94,SW,230,0.0,0.0,100,0.00,,,0.17,0,TxWx,2013-02-24 01:38:00,
2013-02-23 20:43:00,44.4,44.4,29.95,WSW,250,0.0,0.0,100,0.00,,,0.17,0,TxWx,2013-02-24 01:43:00,
2013-02-23 20:48:00,44.3,44.3,29.94,WSW,247,0.0,0.0,100,0.00,,,0.17,0,TxWx,2013-02-24 01:48:00,
2013-02-23 20:53:00,44.3,44.3,29.94,WSW,246,0.0,0.0,100,0.00,,,0.17,0,TxWx,2013-02-24 01:53:00,
2013-02-23 20:58:00,44.3,44.3,29.94,WSW,249,0.0,0.0,100,0.00,,,0.17,0,TxWx,2013-02-24 01:58:00,
2013-02-23 21:03:00,44.1,44.1,29.94,WSW,252,0.0,0.0,100,0.00,,,0.17,0,TxWx,2013-02-24 02:03:00,
2013-02-23 21:08:00,44.1,44.1,29.95,WSW,252,0.0,0.0,100,0.00,,,0.17,0,TxWx,2013-02-24 02:08:00,
2013-02-23 21:13:00,43.9,43.9,29.95,WSW,250,0.0,0.0,100,0.00,,,0.17,0,TxWx,2013-02-24 02:13:00,
2013-02-23 21:18:00,44.0,44.0,29.95,WSW,251,0.0,0.0,100,0.00,,,0.17,0,TxWx,2013-02-24 02:18:00,
2013-02-23 21:23:00,43.9,43.9,29.95,WSW,238,0.0,0.0,100,0.00,,,0.17,0,TxWx,2013-02-24 02:23:00,
2013-02-23 21:28:00,43.3,43.3,29.95,SW,221,1.1,2.0,100,0.00,,,0.17,0,TxWx,2013-02-24 02:28:00,
2013-02-23 21:33:00,43.2,43.2,29.95,SW,236,2.4,2.4,100,0.00,,,0.17,0,TxWx,2013-02-24 02:33:00,
2013-02-23 21:38:00,43.2,43.2,29.95,SW,235,1.1,1.1,100,0.00,,,0.17,0,TxWx,2013-02-24 02:38:00,
2013-02-23 21:43:00,43.2,43.2,29.95,WSW,245,1.1,1.1,100,0.00,,,0.17,0,TxWx,2013-02-24 02:43:00,
2013-02-23 21:48:00,42.9,42.9,29.96,WSW,249,0.0,0.0,100,0.00,,,0.17,0,TxWx,2013-02-24 02:48:00,
2013-02-23 21:53:00,42.9,42.9,29.95,WSW,246,0.0,0.0,100,0.00,,,0.17,0,TxWx,2013-02-24 02:53:00,
2013-02-23 21:58:00,42.9,42.9,29.95,SW,231,1.1,1.1,100,0.00,,,0.17,0,TxWx,2013-02-24 02:58:00,
2013-02-23 22:03:00,42.7,42.7,29.96,WSW,246,1.1,2.0,100,0.00,,,0.17,0,TxWx,2013-02-24 03:03:00,
2013-02-23 22:08:00,43.0,43.0,29.96,WSW,244,1.1,1.1,100,0.00,,,0.17,0,TxWx,2013-02-24 03:08:00,
2013-02-23 22:13:00,43.1,43.1,29.96,WSW,238,0.0,1.0,100,0.00,,,0.17,0,TxWx,2013-02-24 03:13:00,
2013-02-23 22:18:00,43.0,43.0,29.96,WSW,237,1.1,1.1,100,0.00,,,0.17,0,TxWx,2013-02-24 03:18:00,
2013-02-23 22:23:00,43.0,43.0,29.96,SW,234,1.1,1.1,100,0.00,,,0.17,0,TxWx,2013-02-24 03:23:00,
2013-02-23 22:28:00,43.1,43.1,29.96,SW,230,2.4,3.0,100,0.00,,,0.17,0,TxWx,2013-02-24 03:28:00,
2013-02-23 22:33:00,43.0,43.0,29.96,WSW,241,2.4,2.4,100,0.00,,,0.17,0,TxWx,2013-02-24 03:33:00,
2013-02-23 22:38:00,42.5,42.5,29.96,WNW,287,0.0,1.0,100,0.00,,,0.17,0,TxWx,2013-02-24 03:38:00,
2013-02-23 22:43:00,42.4,42.4,29.96,WNW,288,1.1,1.1,100,0.00,,,0.17,0,TxWx,2013-02-24 03:43:00,
2013-02-23 22:48:00,42.2,42.2,29.96,West,281,1.1,2.0,100,0.00,,,0.17,0,TxWx,2013-02-24 03:48:00,
2013-02-23 22:53:00,42.7,42.7,29.96,West,281,0.0,1.0,100,0.00,,,0.17,0,TxWx,2013-02-24 03:53:00,
2013-02-23 22:58:00,42.4,42.4,29.96,West,268,1.1,2.0,100,0.00,,,0.17,0,TxWx,2013-02-24 03:58:00,
2013-02-23 23:03:00,42.1,42.1,29.96,WSW,242,2.4,2.4,100,0.00,,,0.17,0,TxWx,2013-02-24 04:03:00,
2013-02-23 23:08:00,41.8,41.8,29.97,SW,229,0.0,1.0,100,0.00,,,0.17,0,TxWx,2013-02-24 04:08:00,
2013-02-23 23:14:00,41.6,41.6,29.97,NE,39,0.0,1.0,100,0.00,,,0.17,0,TxWx,2013-02-24 04:14:00,
2013-02-23 23:19:00,41.6,41.6,29.97,South,170,1.1,1.1,100,0.00,,,0.17,0,TxWx,2013-02-24 04:19:00,
2013-02-23 23:24:00,41.6,41.6,29.97,SSW,208,1.1,2.0,100,0.00,,,0.17,0,TxWx,2013-02-24 04:24:00,
2013-02-23 23:29:00,41.5,41.5,29.97,WNW,285,1.1,2.0,100,0.00,,,0.17,0,TxWx,2013-02-24 04:29:00,
2013-02-23 23:34:00,41.1,41.1,29.97,NNW,346,0.0,0.0,100,0.00,,,0.17,0,TxWx,2013-02-24 04:34:00,
2013-02-23 23:39:00,40.4,40.4,29.97,SW,235,2.4,2.4,100,0.00,,,0.17,0,TxWx,2013-02-24 04:39:00,
2013-02-23 23:44:00,40.5,40.5,29.97,SW,233,0.0,0.0,100,0.00,,,0.17,0,TxWx,2013-02-24 04:44:00,
2013-02-23 23:49:00,40.9,40.9,29.97,SW,232,0.0,0.0,100,0.00,,,0.17,0,TxWx,2013-02-24 04:49:00,
2013-02-23 23:54:00,40.8,40.8,29.97,South,191,0.0,0.0,100,0.00,,,0.17,0,TxWx,2013-02-24 04:54:00,
2013-02-23 23:59:00,40.6,40.6,29.97,SSE,152,0.0,0.0,100,0.00,,,0.17,0,TxWx,2013-02-24 04:59:00,